Regional Weather Roundup
Issued by NWS

Home | Current Version | Previous Version | Text Only | Print | Product List | Glossary Off
Versions: 1 2 3 4 5 6 7 8 9 10 11 12 13 14 15 16 17 18 19 20 21 22 23 24 25 26 27 28 29 30 31 32 33 34 35 36 37 38 39 40 41 42 43 44 45 46 47 48 49 50

000
ASUS43 KMKX 270059
RWRWI

WISCONSIN REGIONAL WEATHER ROUNDUP
NATIONAL WEATHER SERVICE MILWAUKEE/SULLIVAN WI
800 PM CDT THU MAR 26 2015

NOTE: "FAIR" INDICATES FEW OR NO CLOUDS BELOW 12,000 FEET WITH NO
SIGNIFICANT WEATHER AND/OR OBSTRUCTIONS TO VISIBILITY.

WIZ001-002-006>008-014>016-023>028-270200-
NORTHWEST WISCONSIN

CITY           SKY/WX    TMP DP  RH WIND       PRES   REMARKS
SUPERIOR ARPT  CLEAR     28   3  34 N9G16     30.17R WCI  19
ASHLAND        MOCLDY    22   8  55 NE6       30.17R WCI  14
HAYWARD        CLEAR     26   3  37 N9        30.12R WCI  17
SIREN          CLEAR     29   0  29 N10       30.13R WCI  19
CUMBERLAND     CLEAR     28   1  31 N9        30.10R WCI  20
RICE LAKE      CLEAR     29   6  38 N13       30.11R WCI  19
CHETEK         CLEAR     29   8  40 N8        30.10R WCI  21
LADYSMITH      CLEAR     28   7  41 N12       30.10R WCI  17
EAU CLAIRE     CLEAR     28  11  48 N6        30.10R WCI  22
MENOMONIE      PTCLDY    32  14  48 N8        30.10R WCI  24
NEW RICHMOND   CLEAR     29   7  39 N8        30.12R WCI  21
OSCEOLA        CLEAR     31   5  33 N8        30.15R WCI  24
$$

WIZ003>005-009-010-017-018-270200-
NORTH CENTRAL WISCONSIN

CITY           SKY/WX    TMP DP  RH WIND       PRES   REMARKS
MANITOWISH WTR CLEAR     17   4  57 N5        30.08R WCI  10
ARBOR VITAE    CLEAR     19   7  60 N8        30.08R WCI   8
WOODRUFF       CLEAR     19   7  60 N8        30.08R WCI   8
RHINELANDER    CLEAR     17   5  59 N8        30.08R WCI   7
EAGLE RIVER    MOCLDY    17   3  55 N9G16     30.07R WCI   5
LAND O LAKES   MOCLDY    17   5  59 N8        30.08R WCI   7
PHILLIPS       CLEAR     21   7  53 N7        30.07R WCI  13
TOMAHAWK       CLEAR     19   7  59 CALM      30.08R
MEDFORD        MOCLDY    22  10  59 N7        30.06R WCI  14
MERRILL        PTCLDY    22   8  54 N14       30.08R WCI   9
$$

WIZ029-030-035-036-043>047-270200-
CENTRAL WISCONSIN

CITY           SKY/WX    TMP DP  RH WIND       PRES   REMARKS
WAUSAU         FAIR      24   9  52 N8        30.07R WCI  15
MOSINEE        PTCLDY    25  10  54 N9G16     30.08R WCI  15
MARSHFIELD     PTCLDY    26  12  55 N8        30.07R WCI  18
STEVENS POINT  CLOUDY    26  10  52 N13G18    30.07R WCI  14
WAUPACA        CLOUDY    31  12  46 NW15G22   30.07R WCI  20
WAUTOMA        NOT AVBL
WISC RAPIDS    CLOUDY    27  11  51 N12       30.09R WCI  17
CAMP DOUGLAS   NOT AVBL
$$

WIZ011>013-019>022-031-037>040-048>050-270200-
NORTHEAST WISCONSIN

CITY           SKY/WX    TMP DP  RH WIND       PRES   REMARKS
ANTIGO         FLURRIES  21  11  66 N16       30.05R WCI   7
SHAWANO        CLOUDY    29  13  51 N10       30.08R WCI  20
OCONTO         CLOUDY    26  15  62 N10G17    30.08R WCI  16
STURGEON BAY   CLOUDY    25  12  58 N15       30.09R WCI  12
GREEN BAY      CLOUDY    30  16  56 N15       30.07R WCI  19
MANITOWOC      NOT AVBL
APPLETON       CLOUDY    28  14  54 N15       30.06R WCI  17
CLINTONVILLE   CLOUDY    28  14  54 N10G18    30.07R WCI  19
OSHKOSH        CLOUDY    30  15  53 N17       30.05R WCI  18
$$

WIZ032>034-041-042-053>061-270200-
SOUTHWEST WISCONSIN

CITY           SKY/WX    TMP DP  RH WIND       PRES   REMARKS
LA CROSSE      CLOUDY    34  18  52 N9        30.10R WCI  27
SPARTA         CLOUDY    32  15  49 N8        30.09R WCI  24
VIROQUA        CLOUDY    31  19  60 N10       30.05S WCI  22
BOSCOBEL       CLOUDY    35  19  52 N7        30.08R WCI  29
PRAIRIE DU CHI CLEAR     33  18  55 NW8       30.08S WCI  26
PLATTEVILLE    CLOUDY    33  23  67 W7        30.05S WCI  26
$$

WIZ056-057-062-063-064-067-068-270200-
SOUTH CENTRAL WISCONSIN

CITY           SKY/WX    TMP DP  RH WIND       PRES   REMARKS
REEDSBURG      CLOUDY    31  18  58 N12       30.05R WCI  22
BARABOO/DELLS  CLOUDY    31  16  53 N8        30.05R WCI  24
LONE ROCK      NOT AVBL
MINERAL POINT  CLOUDY    34  21  60 NW9       30.03S WCI  26
MADISON        CLOUDY    32  18  56 N8        30.05R WCI  25
MIDDLETON      CLOUDY    34  20  55 N8        30.04R WCI  27
WATERTOWN      CLOUDY    30  18  60 N7        30.04R WCI  23
MONROE         CLOUDY    32  23  69 NW6       30.02R WCI  26
JANESVILLE     CLOUDY    36  19  51 N13       30.03R WCI  27
$$

WIZ051-052-058>065-066-070>072-270200-
SOUTHEAST WISCONSIN

CITY           SKY/WX    TMP DP  RH WIND       PRES   REMARKS
MILWAUKEE      CLOUDY    32  16  51 N14G23    30.03R WCI  22
WAUKESHA       CLOUDY    28  18  64 NW9       30.04R WCI  20
MILWAUKEE/TIMM NOT AVBL
RACINE         CLOUDY    33  19  56 N10       30.05R WCI  25
BURLINGTON     CLOUDY    31  18  59 N12G18    30.03R WCI  22
KENOSHA        CLOUDY    33  21  61 N15       30.02R WCI  23
FOND DU LAC    CLOUDY    31  14  49 N15       30.05R WCI  20
SHEBOYGAN      CLOUDY    30  19  63 N12       30.04R WCI  20
WEST BEND      CLOUDY    30  16  55 N12       30.03S WCI  21
JUNEAU         CLOUDY    30  15  53 NW12      30.05R WCI  20
$$

LSZ147-162-270200-
LAKE SUPERIOR

STATION/POSITION TIME  TEMP    WIND        PRES    WAVE
                       AIR SEA DIR/SP/G            HT/PER
                 (UTC) (F)     (DEG/KT/KT) (MB)    (FT/S)
DEVILS ISLAND    0000   26     360/ 17/ 19 1022.3R
PORT WING        0040   27      50/  2/  7 1022.0R
SAXON HARBOR     0000   26     360/  9/ 16 1021.0R
$$

LMZ867-665-643>646-270200-
LAKE MICHIGAN

STATION/POSITION TIME  TEMP    WIND        PRES    WAVE
                       AIR SEA DIR/SP/G            HT/PER
                 (UTC) (F)     (DEG/KT/KT) (MB)    (FT/S)
NORTHPORT PIER   0007   24     340/ 19/ 23 1018.3R
SISTER BAY       0017   24     360/ 18/ 22   N/A
KEWAUNEE LAKESHO 0000   29      20/ 12/ 15 1016.5R
SHEBOYGAN LAKESH 0000   31     330/ 15/ 17 1018.0R
PORT WASHINGTON  0040   32     320/  7/ 10 1017.9R
MILWAUKEE LAKESH 0000   33     320/ 11/ 17   N/A
KENOSHA   LAKESH 0000   35     340/ 13/ 16 1016.3S
$$

TC  - TEMPERATURE IN CELSIUS
VSB - VISIBILITY IN STATUTE MILES
WCI - WIND CHILL INDEX
HX  - HEAT INDEX



USA.gov is the U.S. government's official web portal to all federal, state and local government web resources and services.